Other Public Products
Issued by NWS Charleston, SC

Current Version | Previous Version | Graphics & Text | Print | Product List | Glossary On
Versions: 1 2 3 4 5 6 7 8 9 10 11 12 13 14 15 16 17 18 19 20 21 22 23 24 25 26 27 28 29 30 31 32 33 34 35 36 37 38 39 40 41 42 43 44 45 46 47 48 49 50
000 FPUS82 KCHS 120011 OPUCHS TEST...KCHS/KSAV Gateway Observations...TEST National Weather Service Charleston SC 700 PM EST MON DEC 11 2017 NOTE: "fair" indicates few or no clouds below 12,000 feet with no significant weather and/or obstructions to visibility. SCZ050-WAZ558-NCZ071-TXZ119-213-PAZ071-DCZ001-FLZ074-172-MI076- NYZ176-178-MAZ016-IL014-TNZ027-NJZ106-GAZ044-MD014-120100- ...Gateway Observations for Charleston International... CITY SKY/WX TMP DP RH WIND PRES REMARKS Chas Airport CLEAR 45 36 70 S6 30.07S 6HR MIN TEMP: 44; 6HR MAX TEMP: 58; Seattle PTCLDY 43 34 70 SE6 30.36F 6HR MIN TEMP: 35; 6HR MAX TEMP: 49; Charlotte PTCLDY 46 31 55 S8 29.99S 6HR MIN TEMP: 44; 6HR MAX TEMP: 55; Dallas DFW PTCLDY 72 14 11 W10 30.09S 6HR MIN TEMP: 72; 6HR MAX TEMP: 79; Dallas Love MOCLDY 69 17 13 W5 30.10R 6HR MIN TEMP: 69; 6HR MAX TEMP: 77; Philladelphia MOCLDY 38 24 57 SE5 30.00F WCI 34 6HR MIN TEMP: 35; 6HR MAX TEMP: 42; Wash National PTCLDY 43 28 55 S10 29.97S 6HR MIN TEMP: 43; 6HR MAX TEMP: 49; Baltimore PTCLDY 40 29 64 S5 29.96F WCI 37 6HR MIN TEMP: 39; 6HR MAX TEMP: 47; Miami CLEAR 61 40 45 NW3 30.17R 6HR MIN TEMP: 61; 6HR MAX TEMP: 69; Detroit LGT SNOW 31 28 89 SE5 29.75F VSB 1 WCI 26 6HR MIN TEMP: 29; 6HR MAX TEMP: 31; 6HR PCP: 0.07; Newark MOCLDY 37 21 52 S3 30.01F 6HR MIN TEMP: 36; 6HR MAX TEMP: 43; Laguardia PTCLDY 40 21 46 SW6 30.01S WCI 36 6HR MIN TEMP: 40; 6HR MAX TEMP: 43; J F K MOCLDY 35 24 64 SW7 30.03S WCI 29 6HR MIN TEMP: 35; 6HR MAX TEMP: 41; Boston Logan MOCLDY 35 18 49 NW5 30.02F WCI 31 6HR MIN TEMP: 35; 6HR MAX TEMP: 39; Ft. Lauderdale PTCLDY 58 43 57 NW7 30.16R 6HR MIN TEMP: 58; 6HR MAX TEMP: 68; Chicago O`Hare LGT SNOW 33 31 92 NW7 29.75R VSB 3/4 WCI 27 6HR MIN TEMP: 33; 6HR MAX TEMP: 39; 6HR PCP: 0.07; Chicago Midway LGT SNOW 33 32 96 NW7 29.75R VSB 3/4 WCI 27 6HR MIN TEMP: 34; 6HR MAX TEMP: 40; 6HR PCP: TRACE; Houston Bush PTCLDY 64 32 30 SW3 30.17R 6HR MIN TEMP: 64; 6HR MAX TEMP: 75; Houston Hobby PTCLDY 61 36 39 SW6 30.17S 6HR MIN TEMP: 61; 6HR MAX TEMP: 73; Nashville MOCLDY 56 29 35 S10G22 29.86R 6HR MIN TEMP: 56; 6HR MAX TEMP: 60; Atlanta PTCLDY 52 33 48 SW5 30.02R 6HR MIN TEMP: 51; 6HR MAX TEMP: 61; $$ GAZ044-118-TXZ119-213-NCZ071-DCZ001-MDZ014-506-PAZ021-071-NJZ106- NYZ176-178-MAZ106-OHZ011-021-055-MIZ076-KYZ091-ILZ014-INZ047- MNZ060-ONZ431-120100- ...Gateway Observations for Savannah International... CITY SKY/WX TMP DP RH WIND PRES REMARKS Savannah Arpt CLEAR 45 38 76 S3 30.09S 6HR MIN TEMP: 44; 6HR MAX TEMP: 62; Atlanta PTCLDY 52 33 48 SW5 30.02R 6HR MIN TEMP: 51; 6HR MAX TEMP: 61; Charlotte PTCLDY 46 31 55 S8 29.99S 6HR MIN TEMP: 44; 6HR MAX TEMP: 55; Dallas DFW PTCLDY 72 14 11 W10 30.09S 6HR MIN TEMP: 72; 6HR MAX TEMP: 79; Houston Bush PTCLDY 64 32 30 SW3 30.17R 6HR MIN TEMP: 64; 6HR MAX TEMP: 75; Wash National PTCLDY 43 28 55 S10 29.97S 6HR MIN TEMP: 43; 6HR MAX TEMP: 49; Wash Dulles PTCLDY 40 28 62 SE8 29.94S WCI 34 6HR MIN TEMP: 40; 6HR MAX TEMP: 48; Baltimore PTCLDY 40 29 64 S5 29.96F WCI 37 6HR MIN TEMP: 39; 6HR MAX TEMP: 47; Philadelphia MOCLDY 38 24 57 SE5 30.00F WCI 34 6HR MIN TEMP: 35; 6HR MAX TEMP: 42; Newark MOCLDY 37 21 52 S3 30.01F 6HR MIN TEMP: 36; 6HR MAX TEMP: 43; Laguardia PTCLDY 40 21 46 SW6 30.01S WCI 36 6HR MIN TEMP: 40; 6HR MAX TEMP: 43; J F K MOCLDY 35 24 64 SW7 30.03S WCI 29 6HR MIN TEMP: 35; 6HR MAX TEMP: 41; Boston MOCLDY 35 18 49 NW5 30.02F WCI 31 6HR MIN TEMP: 35; 6HR MAX TEMP: 39; Pittsburg CLOUDY 36 22 56 E5 29.79F WCI 32 6HR MIN TEMP: 35; 6HR MAX TEMP: 39; Akron CLOUDY 32 21 64 SE8 29.77F WCI 25 6HR MIN TEMP: 31; 6HR MAX TEMP: 33; 6HR PCP: TRACE; Cleveland CLOUDY 32 25 75 S9 29.79F WCI 24 6HR MIN TEMP: 30; 6HR MAX TEMP: 32; 6HR PCP: 0.01; Cincinnati CLOUDY 41 29 62 S7 29.70F 6HR MIN TEMP: 40; 6HR MAX TEMP: 46; Columbus MOCLDY 33 27 80 E5 29.77F WCI 28 Detroit LGT SNOW 31 28 89 SE5 29.75F VSB 1 WCI 26 6HR MIN TEMP: 29; 6HR MAX TEMP: 31; 6HR PCP: 0.07; Chicago O`Hare LGT SNOW 33 31 92 NW7 29.75R VSB 3/4 WCI 27 6HR MIN TEMP: 33; 6HR MAX TEMP: 39; 6HR PCP: 0.07; Minneapolis MOCLDY 27 18 69 N20G26 30.08R WCI 13 6HR MIN TEMP: 27; 6HR MAX TEMP: 35; Indianapolis CLOUDY 45 29 53 W14 29.68R 6HR MIN TEMP: 40; 6HR MAX TEMP: 46; Toronto Canada LGT SNOW 25 21 86 S5 29.83 WCI 19 $$

USA.gov is the U.S. government's official web portal to all federal, state and local government web resources and services.